Weather in Yangorchino

Russia / Chuvash Republic     55°32′21″N   47°06′45″E
temp.,
°C
wind,
m/s
gust,
m/s
humid.,
%
clouds,
%
prec.,
mm/h
press.,
hPa
HPBL,
m
15 april, thu
thu1500:00+11sse37860 0.0 1022109
03:00+10sse22870 0.0 102120
06:00+10s338596 0.0 102054
09:00+13s247484 0.0 1020182
12:00+19ssw234040 0.0 10191893
15:00+20nw123322 0.0 10182128
18:00+16nne22524 0.0 101824
21:00+12ne22634 0.0 101916
16 april, fri
fri1600:00+10ne5109421 0.0 1020221
03:00+8ne6992100 0.0 1022378
06:00+8ene6987100 0.0 1023518
09:00+8ene6984100 0.0 1024582
12:00+11ene677279 0.0 1024807
15:00+12ene676680 0.0 1024971
18:00+11ene686692 0.0 1025691
21:00+7ene5127014 0.0 1026312
17 april, sat
sat1700:00+5ene511745 0.0 1026266
03:00+3ene411765 0.0 1027245
06:00+3ene411725 0.0 1027289
09:00+8ene69555 0.0 1028593
12:00+12ene67435 0.0 10271023
15:00+12ene67335 0.0 10261238
18:00+10ene48464 0.0 1026233
21:00+6ene49610 0.0 1026159
18 april, sun
sun1800:00+4ene410730 0.0 1026183
03:00+2ene37760 0.0 1026133
06:00+3ne410760 0.0 1025222
09:00+9ene57550 0.0 1025818
12:00+12ene67431 0.0 10241382
15:00+12ene674128 0.0 10241756
18:00+9ene5956100 0.0 1024379
21:00+6ene71271100 0.0 1026677
19 april, mon
mon1900:00+5ene61165100 0.0 1027831
03:00+2ene61255100 0.0 1028530
06:000ene6126597 0.0 1030594
09:00+4e911440 0.0 10301082
12:00+6ene910340 0.0 10311632
15:00+7e810321 0.0 10311765
18:00+5e610380 0.0 10321043
21:00+1ene412500 0.0 1033349